Lapse_Rate
6.9 7.6 7.7 8.1 8.0 7.8 7.8 7.3 7.4 7.3 7.4 6.6 6.0 5.9 5.6 5.3 5.4 5.6 5.7 5.5 5.5 5.3
6.9 7.6 7.7 8.2 8.0 7.8 7.9 7.6 7.4 7.4 7.3 6.9 6.2 5.9 5.7 5.5 5.4 5.5 5.4 5.6 5.4 5.4
7.4 7.7 8.0 8.1 8.0 7.7 7.9 7.8 7.5 7.3 7.3 7.1 6.6 6.4 6.1 5.7 5.8 5.8 5.6 5.3 5.4 5.4
7.8 7.9 7.9 8.1 8.1 7.8 7.9 7.7 7.6 7.5 7.4 7.1 6.9 6.8 6.5 6.3 5.9 5.6 5.6 5.4 5.1 5.4
7.6 7.7 7.2 8.0 8.0 8.0 7.7 7.7 7.6 7.5 7.4 7.0 6.9 6.9 6.8 6.5 6.3 6.1 5.9 5.6 5.5 5.4
7.2 6.9 7.4 8.1 7.9 8.0 7.8 7.7 7.7 7.7 7.5 7.0 6.7 6.7 6.9 6.8 6.6 6.2 5.9 5.5 5.6 5.3
6.9 7.1 7.1 7.8 8.0 7.9 7.8 7.8 7.6 7.6 7.5 7.1 6.7 6.6 6.7 6.9 6.7 6.4 6.0 5.8 5.6 5.7
7.1 7.0 7.0 7.7 7.7 7.7 7.8 7.8 7.7 7.5 7.4 7.1 6.8 6.8 6.7 6.6 6.6 6.4 6.3 6.2 6.0 5.9
6.3 6.5 7.1 7.4 7.6 7.4 7.3 7.6 7.5 7.4 7.2 6.9 7.2 7.0 6.9 6.8 6.7 6.4 6.1 6.2 6.2 6.0
6.6 7.1 6.8 6.9 7.3 7.1 6.9 7.2 7.2 7.3 7.2 7.2 7.2 7.0 6.9 6.8 6.5 6.1 6.1 6.4 6.5 6.3
6.6 6.6 6.7 6.4 6.7 6.9 6.2 6.7 7.0 6.8 6.5 6.5 6.5 6.8 7.1 6.6 6.4 6.4 6.3 6.6 6.6 6.6
6.3 6.6 6.1 6.4 6.2 6.4 5.9 5.6 6.4 6.3 6.4 6.4 6.2 6.1 6.9 6.8 6.6 6.5 6.6 6.6 6.6 6.7
5.4 5.6 5.9 6.0 6.0 5.9 6.1 5.7 5.6 5.7 5.6 5.5 5.4 5.7 6.6 6.9 6.5 6.3 6.1 6.3 6.4 6.3
4.0 3.8 4.5 5.0 4.2 5.0 5.5 5.5 5.5 5.5 5.5 5.3 5.2 5.4 6.1 6.2 6.1 6.0 6.1 6.2 6.1 6.0
Wind_Speed
13 10 8 12 10 9 9 8 9 12 12 11 12 10 10 8 7 7 8 10 8 6
12 12 9 10 9 7 11 9 7 7 11 12 12 13 12 9 10 10 9 9 8 6
12 11 7 11 8 7 11 10 9 7 8 12 13 12 11 8 9 9 6 7 8 8
9 8 6 8 6 6 9 8 8 6 5 10 11 12 11 10 9 10 9 7 9 9
6 5 6 6 6 9 7 7 7 8 8 5 7 9 11 11 10 11 10 10 9 9
5 6 7 8 10 10 9 7 8 8 10 10 9 8 8 9 8 9 9 9 10 10
1 5 6 7 11 10 7 6 8 7 9 8 9 9 8 8 9 9 8 9 10 9
4 3 6 4 11 9 6 6 6 6 8 6 5 2 7 9 9 9 7 8 10 10
9 7 6 7 10 8 7 6 5 7 8 9 6 9 7 2 7 7 7 8 8 8
14 13 10 6 8 7 5 5 3 4 11 10 8 12 9 5 3 6 6 7 5 4
16 15 14 11 11 10 10 10 9 10 10 10 9 14 10 6 5 9 10 9 7 6
16 15 15 14 11 10 11 12 11 11 12 11 11 17 12 1 9 11 11 11 11 8
13 13 14 14 11 9 12 11 9 12 12 16 14 20 17 10 8 11 8 9 10 16
11 11 12 11 8 8 10 8 8 12 12 14 14 16 21 17 9 7 9 8 7 7
Wind_Direction
191 188 194 180 168 179 182 179 174 172 179 179 178 171 171 177 178 172 188 192 191 186
182 186 200 165 173 185 165 171 162 165 171 178 185 185 177 182 188 187 192 196 196 200
177 192 179 171 176 169 157 155 157 174 185 178 178 168 172 177 182 180 189 197 180 189
173 169 171 154 168 130 122 132 139 152 167 165 177 170 173 174 177 187 189 189 199 188
131 168 150 162 142 124 129 136 148 153 158 169 155 165 171 173 178 185 193 193 198 205
158 183 158 153 138 143 146 146 150 164 161 167 167 169 162 163 164 178 184 188 194 200
234 161 155 157 135 134 153 150 157 166 162 159 167 173 180 174 174 183 192 194 196 198
119 177 126 147 134 147 144 158 140 131 140 137 147 103 187 180 185 190 190 192 195 197
21 51 81 126 136 134 144 152 159 160 160 162 76 7 30 198 186 185 192 200 203 204
17 29 31 53 84 79 75 147 115 87 94 82 57 9 12 28 179 84 71 64 52 71
25 28 22 32 58 60 66 59 56 53 71 79 42 12 360 343 101 84 68 53 43 60
26 30 35 21 33 58 72 70 64 59 51 47 39 18 1 51 94 90 78 61 51 59
29 33 42 39 11 39 74 76 78 72 59 47 43 26 33 64 96 91 83 67 57 54
18 29 48 56 24 5 65 69 68 76 69 55 43 38 47 62 76 92 95 79 63 54